Randolph AFB, TX

11:48 AM CDT on June 26, 2017 (GMT -0500)
Randolph Air Force Base

Weather History for KRND - May, 2013

Change the Weather History Date:

Saturday, May 4, 2013

  Actual Average Record
Temperature  
Mean Temperature 62 °F -  
Max Temperature 80 °F 82 °F 94 °F (2012)
Min Temperature 45 °F 63 °F 45 °F (2013)
Degree Days  
Heating Degree Days 3    
Growing Degree Days 12 (Base 50)    
Moisture  
Dew Point 37 °F    
Average Humidity 43    
Maximum Humidity 84    
Minimum Humidity 20    
Precipitation  
Precipitation 0.00 in - - ()
Sea Level Pressure  
Sea Level Pressure 30.00 in    
Wind  
Wind Speed 5 mph (SSW)    
Max Wind Speed 14 mph    
Max Gust Speed 18 mph    
Visibility 10 miles    
Events      
Averages and records for this station are not official NWS values.
T = Trace of Precipitation, MM = Missing Value Source: NWS Daily Summary

Daily Weather History Graph

Daily Weather History Graph

Search for Another Location

Airport or City:

Trip Planner

Search our weather history database for the weather conditions in past years. The results will help you decide how hot, cold, wet, or windy it might be!

Date:

Astronomy

May. 04, 2013 Rise Set
Actual Time 6:48 AM CDT 8:11 PM CDT
Civil Twilight 6:22 AM CDT 8:37 PM CDT
Nautical Twilight 5:52 AM CDT 9:07 PM CDT
Astronomical Twilight 5:21 AM CDT 9:39 PM CDT
Moon 3:23 AM CDT (5/4) 3:32 PM CDT (5/4)
Length of Visible Light 14h 14m
Length of Day
13h 23m
Waning Crescent, 27% of the Moon is Illuminated
May 4
Waning Crescent
May 9
New
May 17
First Quarter
May 24
Full
May 31
Last Quarter

Hourly Weather History & Observations

Time (CDT) Temp. Windchill Dew Point Humidity Pressure Visibility Wind Dir Wind Speed Gust Speed Precip Events Conditions
12:58 AM 46.2 °F - 41.5 °F 84% 30.10 in 10.0 mi Calm Calm - N/A   Clear
1:58 AM 45.1 °F - 40.6 °F 84% 30.08 in 10.0 mi Calm Calm - N/A   Clear
2:58 AM 45.5 °F 44.2 °F 38.7 °F 77% 30.05 in 10.0 mi SW 3.5 mph - N/A   Clear
3:58 AM 49.8 °F - 35.8 °F 59% 30.03 in 10.0 mi SW 4.6 mph - N/A   Clear
4:25 AM 51.8 °F - 35.6 °F 54% 30.03 in 7.0 mi SSW 3.5 mph - N/A   Clear
4:34 AM 51.8 °F - 33.8 °F 50% 30.03 in 10.0 mi SW 3.5 mph - N/A   Clear
4:58 AM 50.9 °F - 34.5 °F 54% 30.03 in 10.0 mi SW 5.8 mph - N/A   Clear
5:58 AM 50.2 °F - 34.0 °F 54% 30.03 in 10.0 mi SW 6.9 mph - N/A   Clear
6:58 AM 50.5 °F - 34.0 °F 53% 30.04 in 10.0 mi SW 5.8 mph - N/A   Clear
7:58 AM 52.9 °F - 34.7 °F 50% 30.05 in 10.0 mi SW 5.8 mph - N/A   Clear
8:58 AM 58.1 °F - 34.7 °F 41% 30.06 in 10.0 mi SW 9.2 mph - N/A   Clear
9:58 AM 63.9 °F - 35.2 °F 35% 30.06 in 10.0 mi SW 13.8 mph - N/A   Clear
10:58 AM 67.5 °F - 33.3 °F 28% 30.06 in 10.0 mi SW 11.5 mph 18.4 mph N/A   Clear
11:58 AM 70.0 °F - 34.7 °F 27% 30.04 in 10.0 mi SW 9.2 mph - N/A   Clear
12:58 PM 73.4 °F - 37.0 °F 27% 30.01 in 10.0 mi WSW 8.1 mph - N/A   Clear
1:58 PM 75.7 °F - 38.3 °F 26% 29.97 in 10.0 mi SW 6.9 mph - N/A   Scattered Clouds
2:58 PM 77.5 °F - 36.1 °F 22% 29.96 in 10.0 mi SSW 6.9 mph - N/A   Partly Cloudy
3:58 PM 79.5 °F - 35.8 °F 21% 29.93 in 10.0 mi SSW 9.2 mph - N/A   Clear
4:58 PM 79.9 °F - 35.2 °F 20% 29.90 in 10.0 mi South 6.9 mph - N/A   Clear
5:58 PM 78.4 °F - 35.8 °F 21% 29.89 in 10.0 mi SSW 8.1 mph - N/A   Clear
6:58 PM 77.5 °F - 36.3 °F 23% 29.88 in 10.0 mi South 9.2 mph - N/A   Clear
7:58 PM 73.2 °F - 36.9 °F 27% 29.89 in 10.0 mi SSW 6.9 mph - N/A   Clear
8:58 PM 69.4 °F - 38.3 °F 32% 29.91 in 10.0 mi South 4.6 mph - N/A   Clear
9:58 PM 68.0 °F - 36.5 °F 31% 29.93 in 10.0 mi SSW 2.3 mph - N/A   Clear
10:58 PM 59.0 °F - 44.2 °F 58% 29.96 in 10.0 mi Variable 2.3 mph - N/A   Clear
11:58 PM 62.4 °F - 43.3 °F 50% 29.98 in 10.0 mi South 4.6 mph - N/A   Clear